Location: Casteau
(50.5142°N, 4.0161°E)
Time: 06:07:32
(UTC+00:00)

Cosmos 1937 Rocket - Pass Details

Date: 18 September 2020
Orbit: 747 x 779 km, 74.0° (Epoch: 27 October)

Event Time Altitude Azimuth Distance (km) Brightness Sun altitude
Rises 18:54:10 0° 200° (SSW) 3,234 6.8 -10.8°
Reaches altitude 10° 18:56:33 10° 199° (SSW) 2,306 6.0 -11.2°
Maximum altitude 19:01:47 84° 112° (ESE) 776 3.5 -12.0°
Drops below altitude 10° 19:07:01 10° 25° (NNE) 2,301 5.9 -12.8°
Sets 19:09:23 0° 25° (NNE) 3,226 6.7 -13.2°
